Time,TemperatureF,DewpointF,PressureIn,WindDirection,WindDirectionDegrees,WindSpeedMPH,WindSpeedGustMPH,Humidity,HourlyPrecipIn,Conditions,Clouds,dailyrainin,SoftwareType,DateUTC
2017-05-29 00:01:00,81.7,71.4,30.03,North,360,0.0,0.0,71,0.00,,---,0.00,VWS V15.00,2017-05-29 04:01:00,
2017-05-29 00:06:00,81.6,70.9,30.03,North,360,0.0,0.0,70,0.00,,---,0.00,VWS V15.00,2017-05-29 04:06:00,
2017-05-29 00:11:00,81.5,70.8,30.02,North,360,0.0,0.0,70,0.00,,---,0.00,VWS V15.00,2017-05-29 04:11:00,
2017-05-29 00:16:00,81.4,70.3,30.02,North,360,0.0,0.0,69,0.00,,---,0.00,VWS V15.00,2017-05-29 04:16:00,
2017-05-29 00:21:00,81.2,70.5,30.02,North,360,0.0,0.0,70,0.00,,---,0.00,VWS V15.00,2017-05-29 04:21:00,
2017-05-29 00:26:00,81.0,70.3,30.02,North,360,0.0,0.0,70,0.00,,---,0.00,VWS V15.00,2017-05-29 04:26:00,
2017-05-29 00:31:00,80.9,70.2,30.02,North,360,0.0,0.0,70,0.00,,---,0.00,VWS V15.00,2017-05-29 04:31:00,
2017-05-29 00:36:00,80.7,70.0,30.02,North,360,0.0,0.0,70,0.00,,---,0.00,VWS V15.00,2017-05-29 04:36:00,
2017-05-29 00:41:00,80.6,69.9,30.02,North,360,0.0,0.0,70,0.00,,---,0.00,VWS V15.00,2017-05-29 04:41:00,
2017-05-29 00:46:00,80.4,69.7,30.02,North,360,0.0,0.0,70,0.00,,---,0.00,VWS V15.00,2017-05-29 04:46:00,
2017-05-29 00:51:00,80.3,70.1,30.02,North,360,0.0,0.0,71,0.00,,---,0.00,VWS V15.00,2017-05-29 04:51:00,
2017-05-29 00:56:00,80.1,69.9,30.02,North,360,0.0,0.0,71,0.00,,---,0.00,VWS V15.00,2017-05-29 04:56:00,
2017-05-29 01:01:00,80.0,70.2,30.01,North,360,0.0,0.0,72,0.00,,---,0.00,VWS V15.00,2017-05-29 05:01:00,
2017-05-29 01:06:00,79.9,70.1,30.01,North,360,0.0,0.0,72,0.00,,---,0.00,VWS V15.00,2017-05-29 05:06:00,
2017-05-29 01:11:00,79.7,69.9,30.01,North,360,0.0,0.0,72,0.00,,---,0.00,VWS V15.00,2017-05-29 05:11:00,
2017-05-29 01:16:00,79.5,70.1,30.01,North,360,0.0,0.0,73,0.00,,---,0.00,VWS V15.00,2017-05-29 05:16:00,
2017-05-29 01:21:00,79.4,70.0,30.01,North,360,0.0,0.0,73,0.00,,---,0.00,VWS V15.00,2017-05-29 05:21:00,
2017-05-29 01:26:00,79.3,69.9,30.01,North,360,0.0,0.0,73,0.00,,---,0.00,VWS V15.00,2017-05-29 05:26:00,
2017-05-29 01:31:00,79.2,69.8,30.01,North,360,0.0,0.0,73,0.00,,---,0.00,VWS V15.00,2017-05-29 05:31:00,
2017-05-29 01:32:00,79.2,69.8,30.01,North,360,0.0,0.0,73,0.00,,---,0.00,VWS V15.00,2017-05-29 05:32:00,
2017-05-29 01:37:00,79.2,70.2,30.01,North,360,0.0,0.0,74,0.00,,---,0.00,VWS V15.00,2017-05-29 05:37:00,
2017-05-29 01:42:00,79.1,70.1,30.01,North,360,0.0,0.0,74,0.00,,---,0.00,VWS V15.00,2017-05-29 05:42:00,
2017-05-29 01:47:00,79.0,70.0,30.01,North,360,0.0,0.0,74,0.00,,---,0.00,VWS V15.00,2017-05-29 05:47:00,
2017-05-29 01:52:00,78.9,70.3,30.01,North,360,0.0,0.0,75,0.00,,---,0.00,VWS V15.00,2017-05-29 05:52:00,
2017-05-29 01:57:00,78.7,70.1,30.01,North,360,0.0,0.0,75,0.00,,---,0.00,VWS V15.00,2017-05-29 05:57:00,
2017-05-29 02:02:00,78.6,70.0,30.01,North,360,0.0,0.0,75,0.00,,---,0.00,VWS V15.00,2017-05-29 06:02:00,
2017-05-29 02:07:00,78.5,69.9,30.00,North,360,0.0,0.0,75,0.00,,---,0.00,VWS V15.00,2017-05-29 06:07:00,
2017-05-29 02:12:00,78.3,69.7,30.00,North,360,0.0,0.0,75,0.00,,---,0.00,VWS V15.00,2017-05-29 06:12:00,
2017-05-29 02:17:00,78.3,70.1,30.00,North,360,0.0,0.0,76,0.00,,---,0.00,VWS V15.00,2017-05-29 06:17:00,
2017-05-29 02:22:00,78.3,70.5,30.00,North,360,0.0,0.0,77,0.00,,---,0.00,VWS V15.00,2017-05-29 06:22:00,
2017-05-29 02:27:00,78.2,70.4,30.00,North,360,0.0,0.0,77,0.00,,---,0.00,VWS V15.00,2017-05-29 06:27:00,
2017-05-29 02:32:00,78.0,70.2,30.00,North,360,0.0,0.0,77,0.00,,---,0.00,VWS V15.00,2017-05-29 06:32:00,
2017-05-29 02:37:00,77.9,70.5,30.00,North,360,0.0,0.0,78,0.00,,---,0.00,VWS V15.00,2017-05-29 06:37:00,
2017-05-29 02:42:00,77.8,70.4,30.00,North,360,0.0,0.0,78,0.00,,---,0.00,VWS V15.00,2017-05-29 06:42:00,
2017-05-29 02:47:00,77.7,70.3,30.00,North,360,0.0,0.0,78,0.00,,---,0.00,VWS V15.00,2017-05-29 06:47:00,
2017-05-29 02:52:00,77.5,70.1,29.99,North,360,0.0,0.0,78,0.00,,---,0.00,VWS V15.00,2017-05-29 06:52:00,
2017-05-29 02:57:00,77.5,70.5,29.99,North,360,0.0,0.0,79,0.00,,---,0.00,VWS V15.00,2017-05-29 06:57:00,
2017-05-29 03:02:00,77.4,70.4,29.99,North,360,0.0,0.0,79,0.00,,---,0.00,VWS V15.00,2017-05-29 07:02:00,
2017-05-29 03:03:00,77.3,70.3,29.99,North,360,0.0,0.0,79,0.00,,---,0.00,VWS V15.00,2017-05-29 07:03:00,
2017-05-29 03:08:00,77.1,70.1,29.99,North,360,0.0,0.0,79,0.00,,---,0.00,VWS V15.00,2017-05-29 07:08:00,
2017-05-29 03:13:00,77.0,70.0,29.99,North,360,0.0,0.0,79,0.00,,---,0.00,VWS V15.00,2017-05-29 07:13:00,
2017-05-29 03:18:00,76.9,69.9,29.99,North,360,0.0,0.0,79,0.00,,---,0.00,VWS V15.00,2017-05-29 07:18:00,
2017-05-29 03:23:00,76.8,70.2,29.98,North,360,0.0,0.0,80,0.00,,---,0.00,VWS V15.00,2017-05-29 07:23:00,
2017-05-29 03:28:00,76.6,69.6,29.98,North,360,0.0,0.0,79,0.00,,---,0.00,VWS V15.00,2017-05-29 07:28:00,
2017-05-29 03:33:00,76.5,69.9,29.98,North,360,0.0,0.0,80,0.00,,---,0.00,VWS V15.00,2017-05-29 07:33:00,
2017-05-29 03:38:00,76.3,69.7,29.98,North,360,0.0,0.0,80,0.00,,---,0.00,VWS V15.00,2017-05-29 07:38:00,
2017-05-29 03:43:00,76.2,69.6,29.98,North,360,0.0,0.0,80,0.00,,---,0.00,VWS V15.00,2017-05-29 07:43:00,
2017-05-29 03:48:00,76.1,69.5,29.98,North,360,0.0,0.0,80,0.00,,---,0.00,VWS V15.00,2017-05-29 07:48:00,
2017-05-29 03:53:00,76.0,69.8,29.98,North,360,0.0,0.0,81,0.00,,---,0.00,VWS V15.00,2017-05-29 07:53:00,
2017-05-29 03:58:00,75.8,69.6,29.98,North,360,0.0,0.0,81,0.00,,---,0.00,VWS V15.00,2017-05-29 07:58:00,
2017-05-29 04:03:00,75.6,69.4,29.98,North,360,0.0,0.0,81,0.00,,---,0.00,VWS V15.00,2017-05-29 08:03:00,
2017-05-29 04:08:00,75.5,69.6,29.98,North,360,0.0,0.0,82,0.00,,---,0.00,VWS V15.00,2017-05-29 08:08:00,
2017-05-29 04:13:00,75.3,69.4,29.98,North,360,0.0,0.0,82,0.00,,---,0.00,VWS V15.00,2017-05-29 08:13:00,
2017-05-29 04:18:00,75.2,69.3,29.98,North,360,0.0,0.0,82,0.00,,---,0.00,VWS V15.00,2017-05-29 08:18:00,
2017-05-29 04:23:00,75.1,69.2,29.98,North,360,0.0,0.0,82,0.00,,---,0.00,VWS V15.00,2017-05-29 08:23:00,
2017-05-29 04:28:00,75.0,69.5,29.98,North,360,0.0,0.0,83,0.00,,---,0.00,VWS V15.00,2017-05-29 08:28:00,
2017-05-29 04:33:00,74.8,69.3,29.98,North,360,0.0,0.0,83,0.00,,---,0.00,VWS V15.00,2017-05-29 08:33:00,
2017-05-29 04:38:00,74.8,69.3,29.98,North,360,0.0,0.0,83,0.00,,---,0.00,VWS V15.00,2017-05-29 08:38:00,
2017-05-29 04:43:00,74.8,69.3,29.98,North,360,0.0,0.0,83,0.00,,---,0.00,VWS V15.00,2017-05-29 08:43:00,
2017-05-29 04:48:00,74.8,69.7,29.98,North,360,0.0,0.0,84,0.00,,---,0.00,VWS V15.00,2017-05-29 08:48:00,
2017-05-29 04:53:00,74.8,69.7,29.98,North,360,0.0,0.0,84,0.00,,---,0.00,VWS V15.00,2017-05-29 08:53:00,
2017-05-29 04:58:00,74.7,69.6,29.98,North,360,0.0,0.0,84,0.00,,---,0.00,VWS V15.00,2017-05-29 08:58:00,
2017-05-29 05:03:00,74.8,69.7,29.98,North,360,0.0,0.0,84,0.00,,---,0.00,VWS V15.00,2017-05-29 09:03:00,
2017-05-29 05:08:00,74.7,69.6,29.99,North,360,0.0,0.0,84,0.00,,---,0.00,VWS V15.00,2017-05-29 09:08:00,
2017-05-29 05:13:00,74.7,69.6,29.99,North,360,0.0,0.0,84,0.00,,---,0.00,VWS V15.00,2017-05-29 09:13:00,
2017-05-29 05:18:00,74.6,69.4,29.99,North,360,0.0,0.0,84,0.00,,---,0.00,VWS V15.00,2017-05-29 09:18:00,
2017-05-29 05:23:00,74.6,69.8,30.00,North,360,0.0,0.0,85,0.00,,---,0.00,VWS V15.00,2017-05-29 09:23:00,
2017-05-29 05:28:00,74.6,69.8,30.00,North,360,0.0,0.0,85,0.00,,---,0.00,VWS V15.00,2017-05-29 09:28:00,
2017-05-29 05:29:00,74.6,69.8,30.00,North,360,0.0,0.0,85,0.00,,---,0.00,VWS V15.00,2017-05-29 09:29:00,
2017-05-29 05:34:00,74.6,69.8,30.00,North,360,0.0,0.0,85,0.00,,---,0.00,VWS V15.00,2017-05-29 09:34:00,
2017-05-29 05:39:00,74.7,69.9,30.00,North,360,0.0,0.0,85,0.00,,---,0.00,VWS V15.00,2017-05-29 09:39:00,
2017-05-29 05:44:00,74.7,69.9,30.01,North,360,0.0,0.0,85,0.00,,---,0.00,VWS V15.00,2017-05-29 09:44:00,
2017-05-29 05:49:00,74.8,70.0,30.01,North,360,0.0,0.0,85,0.00,,---,0.00,VWS V15.00,2017-05-29 09:49:00,
2017-05-29 05:54:00,74.7,69.9,30.01,North,360,0.0,0.0,85,0.00,,---,0.00,VWS V15.00,2017-05-29 09:54:00,
2017-05-29 05:59:00,74.7,69.9,30.01,North,360,0.0,0.0,85,0.00,,---,0.00,VWS V15.00,2017-05-29 09:59:00,
2017-05-29 06:04:00,74.6,69.8,30.01,North,360,0.0,0.0,85,0.00,,---,0.00,VWS V15.00,2017-05-29 10:04:00,
2017-05-29 06:09:00,74.6,69.8,30.01,North,360,0.0,0.0,85,0.00,,---,0.00,VWS V15.00,2017-05-29 10:09:00,
2017-05-29 06:14:00,74.5,69.7,30.02,North,360,0.0,0.0,85,0.00,,---,0.00,VWS V15.00,2017-05-29 10:14:00,
2017-05-29 06:19:00,74.5,69.7,30.02,North,360,0.0,0.0,85,0.00,,---,0.00,VWS V15.00,2017-05-29 10:19:00,
2017-05-29 06:24:00,74.4,69.6,30.03,North,360,0.0,0.0,85,0.00,,---,0.00,VWS V15.00,2017-05-29 10:24:00,
2017-05-29 06:29:00,74.4,69.6,30.03,North,360,0.0,0.0,85,0.00,,---,0.00,VWS V15.00,2017-05-29 10:29:00,
2017-05-29 06:34:00,74.4,69.9,30.04,North,360,0.0,0.0,86,0.00,,---,0.00,VWS V15.00,2017-05-29 10:34:00,
2017-05-29 06:39:00,74.5,70.0,30.04,North,360,0.0,0.0,86,0.01,,---,0.01,VWS V15.00,2017-05-29 10:39:00,
2017-05-29 06:44:00,74.7,70.2,30.04,North,360,0.0,0.0,86,0.01,,---,0.01,VWS V15.00,2017-05-29 10:44:00,
2017-05-29 06:49:00,74.8,70.3,30.04,North,360,0.0,0.0,86,0.01,,---,0.01,VWS V15.00,2017-05-29 10:49:00,
2017-05-29 06:54:00,74.7,70.2,30.05,North,360,0.0,0.0,86,0.01,,---,0.01,VWS V15.00,2017-05-29 10:54:00,
2017-05-29 06:59:00,74.8,70.7,30.05,North,360,0.0,0.0,87,0.01,,---,0.01,VWS V15.00,2017-05-29 10:59:00,
2017-05-29 07:04:00,74.7,70.2,30.05,North,360,0.0,0.0,86,0.01,,---,0.01,VWS V15.00,2017-05-29 11:04:00,
2017-05-29 07:09:00,74.8,70.7,30.05,North,360,0.0,0.0,87,0.01,,---,0.01,VWS V15.00,2017-05-29 11:09:00,
2017-05-29 07:14:00,74.8,70.7,30.05,North,360,0.0,0.0,87,0.01,,---,0.01,VWS V15.00,2017-05-29 11:14:00,
2017-05-29 07:19:00,74.8,70.7,30.06,North,360,0.0,0.0,87,0.01,,---,0.01,VWS V15.00,2017-05-29 11:19:00,
2017-05-29 07:24:00,74.8,70.7,30.06,North,360,0.0,0.0,87,0.01,,---,0.01,VWS V15.00,2017-05-29 11:24:00,
2017-05-29 07:29:00,75.0,70.9,30.06,North,360,0.0,0.0,87,0.01,,---,0.01,VWS V15.00,2017-05-29 11:29:00,
2017-05-29 07:34:00,75.2,71.1,30.07,North,360,0.0,0.0,87,0.01,,---,0.01,VWS V15.00,2017-05-29 11:34:00,
2017-05-29 07:39:00,75.4,71.3,30.07,North,360,0.0,0.0,87,0.01,,---,0.01,VWS V15.00,2017-05-29 11:39:00,
2017-05-29 07:44:00,75.5,71.4,30.07,North,360,0.0,0.0,87,0.01,,---,0.01,VWS V15.00,2017-05-29 11:44:00,
2017-05-29 07:49:00,75.5,71.4,30.06,North,360,0.0,0.0,87,0.01,,---,0.01,VWS V15.00,2017-05-29 11:49:00,
2017-05-29 07:54:00,75.6,71.5,30.07,North,360,0.0,0.0,87,0.01,,---,0.01,VWS V15.00,2017-05-29 11:54:00,
2017-05-29 07:59:00,75.7,71.6,30.07,North,360,0.0,0.0,87,0.01,,---,0.01,VWS V15.00,2017-05-29 11:59:00,
2017-05-29 08:04:00,75.8,71.3,30.07,North,360,0.0,0.0,86,0.00,,---,0.01,VWS V15.00,2017-05-29 12:04:00,
2017-05-29 08:05:00,75.9,71.4,30.07,North,360,0.0,0.0,86,0.00,,---,0.01,VWS V15.00,2017-05-29 12:05:00,
2017-05-29 08:10:00,75.9,71.4,30.07,North,360,0.0,0.0,86,0.00,,---,0.01,VWS V15.00,2017-05-29 12:10:00,
2017-05-29 08:15:00,76.2,71.4,30.07,North,360,0.0,0.0,85,0.00,,---,0.01,VWS V15.00,2017-05-29 12:15:00,
2017-05-29 08:20:00,76.7,71.9,30.07,North,360,0.0,0.0,85,0.00,,---,0.01,VWS V15.00,2017-05-29 12:20:00,
2017-05-29 08:25:00,76.6,71.4,30.07,North,360,0.0,0.0,84,0.00,,---,0.01,VWS V15.00,2017-05-29 12:25:00,
2017-05-29 08:30:00,76.9,71.3,30.07,North,360,0.0,0.0,83,0.00,,---,0.01,VWS V15.00,2017-05-29 12:30:00,
2017-05-29 08:35:00,77.0,71.1,30.07,North,360,0.0,0.0,82,0.00,,---,0.01,VWS V15.00,2017-05-29 12:35:00,
2017-05-29 08:40:00,77.3,71.4,30.07,North,360,0.0,0.0,82,0.00,,---,0.01,VWS V15.00,2017-05-29 12:40:00,
2017-05-29 08:45:00,77.6,71.7,30.07,North,360,0.0,0.0,82,0.00,,---,0.01,VWS V15.00,2017-05-29 12:45:00,
2017-05-29 08:50:00,77.9,71.6,30.07,North,360,0.0,0.0,81,0.00,,---,0.01,VWS V15.00,2017-05-29 12:50:00,
2017-05-29 08:55:00,78.3,71.6,30.08,North,360,0.0,0.0,80,0.00,,---,0.01,VWS V15.00,2017-05-29 12:55:00,
2017-05-29 09:00:00,78.4,71.3,30.07,North,360,0.0,0.0,79,0.00,,---,0.01,VWS V15.00,2017-05-29 13:00:00,
2017-05-29 09:05:00,78.6,71.6,30.07,North,360,0.0,0.0,79,0.00,,---,0.01,VWS V15.00,2017-05-29 13:05:00,
2017-05-29 09:10:00,78.7,70.9,30.07,North,5,0.0,0.0,77,0.00,,---,0.01,VWS V15.00,2017-05-29 13:10:00,
2017-05-29 09:15:00,79.0,70.8,30.07,North,360,0.0,0.0,76,0.00,,---,0.01,VWS V15.00,2017-05-29 13:15:00,
2017-05-29 09:20:00,79.6,71.8,30.08,North,360,0.0,0.0,77,0.00,,---,0.01,VWS V15.00,2017-05-29 13:20:00,
2017-05-29 09:21:00,79.6,71.8,30.08,North,360,0.0,0.0,77,0.00,,---,0.01,VWS V15.00,2017-05-29 13:21:00,
2017-05-29 09:26:00,79.7,71.1,30.08,North,360,0.0,0.0,75,0.00,,---,0.01,VWS V15.00,2017-05-29 13:26:00,
2017-05-29 09:31:00,79.8,70.8,30.08,North,360,0.0,0.0,74,0.00,,---,0.01,VWS V15.00,2017-05-29 13:31:00,
2017-05-29 09:36:00,79.9,71.3,30.08,North,360,0.0,0.0,75,0.00,,---,0.01,VWS V15.00,2017-05-29 13:36:00,
2017-05-29 09:41:00,80.2,71.2,30.08,North,360,0.0,0.0,74,0.00,,---,0.01,VWS V15.00,2017-05-29 13:41:00,
2017-05-29 09:46:00,80.5,71.1,30.08,North,360,0.0,0.0,73,0.00,,---,0.01,VWS V15.00,2017-05-29 13:46:00,
2017-05-29 09:51:00,80.8,70.9,30.08,North,360,0.0,0.0,72,0.00,,---,0.01,VWS V15.00,2017-05-29 13:51:00,
2017-05-29 09:56:00,81.2,70.9,30.08,North,360,0.0,0.0,71,0.00,,---,0.01,VWS V15.00,2017-05-29 13:56:00,
2017-05-29 10:01:00,81.4,71.1,30.08,North,360,0.0,0.0,71,0.00,,---,0.01,VWS V15.00,2017-05-29 14:01:00,
2017-05-29 10:06:00,81.6,71.3,30.08,North,360,0.0,0.0,71,0.00,,---,0.01,VWS V15.00,2017-05-29 14:06:00,
2017-05-29 10:11:00,81.8,71.1,30.08,North,360,0.0,0.0,70,0.00,,---,0.01,VWS V15.00,2017-05-29 14:11:00,
2017-05-29 10:16:00,82.0,71.3,30.07,North,360,0.0,0.0,70,0.00,,---,0.01,VWS V15.00,2017-05-29 14:16:00,
2017-05-29 10:21:00,82.3,71.5,30.08,North,360,0.0,0.0,70,0.00,,---,0.01,VWS V15.00,2017-05-29 14:21:00,
2017-05-29 10:26:00,82.7,71.5,30.08,North,360,0.0,0.0,69,0.00,,---,0.01,VWS V15.00,2017-05-29 14:26:00,
2017-05-29 10:31:00,82.8,71.2,30.08,North,360,0.0,0.0,68,0.00,,---,0.01,VWS V15.00,2017-05-29 14:31:00,
2017-05-29 10:36:00,83.0,71.8,30.08,North,360,0.0,0.0,69,0.00,,---,0.01,VWS V15.00,2017-05-29 14:36:00,
2017-05-29 10:41:00,83.1,71.0,30.08,North,360,0.0,0.0,67,0.00,,---,0.01,VWS V15.00,2017-05-29 14:41:00,
2017-05-29 10:46:00,83.1,71.0,30.08,North,360,0.0,0.0,67,0.00,,---,0.01,VWS V15.00,2017-05-29 14:46:00,
2017-05-29 10:51:00,83.3,71.2,30.08,North,360,0.0,0.0,67,0.00,,---,0.01,VWS V15.00,2017-05-29 14:51:00,
2017-05-29 10:56:00,83.5,70.9,30.09,North,360,0.0,0.0,66,0.00,,---,0.01,VWS V15.00,2017-05-29 14:56:00,
2017-05-29 11:01:00,83.7,70.7,30.08,North,360,0.0,0.0,65,0.00,,---,0.01,VWS V15.00,2017-05-29 15:01:00,
2017-05-29 11:06:00,84.2,71.6,30.08,North,360,0.0,0.0,66,0.00,,---,0.01,VWS V15.00,2017-05-29 15:06:00,
2017-05-29 11:11:00,84.2,71.2,30.08,North,360,0.0,0.0,65,0.00,,---,0.01,VWS V15.00,2017-05-29 15:11:00,
2017-05-29 11:16:00,84.4,71.4,30.08,North,360,0.0,0.0,65,0.00,,---,0.01,VWS V15.00,2017-05-29 15:16:00,
2017-05-29 11:21:00,84.5,71.0,30.08,North,360,0.0,0.0,64,0.00,,---,0.01,VWS V15.00,2017-05-29 15:21:00,
2017-05-29 11:26:00,84.9,70.9,30.09,North,360,0.0,0.0,63,0.00,,---,0.01,VWS V15.00,2017-05-29 15:26:00,
2017-05-29 11:31:00,85.1,71.1,30.09,North,360,0.0,0.0,63,0.00,,---,0.01,VWS V15.00,2017-05-29 15:31:00,
2017-05-29 11:36:00,85.6,71.1,30.09,North,360,0.0,0.0,62,0.00,,---,0.01,VWS V15.00,2017-05-29 15:36:00,
2017-05-29 11:41:00,86.3,72.7,30.09,North,360,0.0,0.0,64,0.00,,---,0.01,VWS V15.00,2017-05-29 15:41:00,
2017-05-29 11:46:00,86.5,71.5,30.09,North,360,0.0,0.0,61,0.00,,---,0.01,VWS V15.00,2017-05-29 15:46:00,
2017-05-29 11:51:00,86.4,71.4,30.09,North,360,0.0,0.0,61,0.00,,---,0.01,VWS V15.00,2017-05-29 15:51:00,
2017-05-29 11:56:00,86.4,72.3,30.09,North,360,0.0,0.0,63,0.00,,---,0.01,VWS V15.00,2017-05-29 15:56:00,
2017-05-29 12:01:00,87.0,72.4,30.09,North,360,0.0,0.0,62,0.00,,---,0.01,VWS V15.00,2017-05-29 16:01:00,
2017-05-29 12:06:00,87.4,71.3,30.09,North,360,0.0,0.0,59,0.00,,---,0.01,VWS V15.00,2017-05-29 16:06:00,
2017-05-29 12:11:00,86.9,70.9,30.09,North,360,0.0,0.0,59,0.00,,---,0.01,VWS V15.00,2017-05-29 16:11:00,
2017-05-29 12:16:00,86.2,71.2,30.09,North,360,0.0,0.0,61,0.00,,---,0.01,VWS V15.00,2017-05-29 16:16:00,
2017-05-29 12:21:00,85.8,70.3,30.09,North,360,0.0,0.0,60,0.00,,---,0.01,VWS V15.00,2017-05-29 16:21:00,
2017-05-29 12:26:00,86.1,70.1,30.09,North,360,0.0,0.0,59,0.00,,---,0.01,VWS V15.00,2017-05-29 16:26:00,
2017-05-29 12:31:00,86.1,70.1,30.09,North,360,0.0,0.0,59,0.00,,---,0.01,VWS V15.00,2017-05-29 16:31:00,
2017-05-29 12:36:00,86.5,70.5,30.09,North,360,0.0,0.0,59,0.00,,---,0.01,VWS V15.00,2017-05-29 16:36:00,
2017-05-29 12:41:00,87.1,71.0,30.09,North,360,0.0,0.0,59,0.00,,---,0.01,VWS V15.00,2017-05-29 16:41:00,
2017-05-29 12:46:00,86.9,70.9,30.09,North,5,0.0,0.0,59,0.00,,---,0.01,VWS V15.00,2017-05-29 16:46:00,
2017-05-29 12:51:00,86.9,70.9,30.09,North,360,0.0,0.0,59,0.00,,---,0.01,VWS V15.00,2017-05-29 16:51:00,
2017-05-29 12:56:00,86.8,71.8,30.09,North,360,0.0,0.0,61,0.00,,---,0.01,VWS V15.00,2017-05-29 16:56:00,
2017-05-29 13:01:00,86.6,71.6,30.09,North,360,0.0,0.0,61,0.00,,---,0.01,VWS V15.00,2017-05-29 17:01:00,
2017-05-29 13:06:00,86.4,71.8,30.08,North,360,0.0,0.0,62,0.00,,---,0.01,VWS V15.00,2017-05-29 17:06:00,
2017-05-29 13:11:00,86.4,72.3,30.09,North,360,0.0,0.0,63,0.00,,---,0.01,VWS V15.00,2017-05-29 17:11:00,
2017-05-29 13:16:00,86.6,71.6,30.08,North,360,0.0,0.0,61,0.00,,---,0.01,VWS V15.00,2017-05-29 17:16:00,
2017-05-29 13:21:00,86.9,72.3,30.08,North,360,0.0,0.0,62,0.00,,---,0.01,VWS V15.00,2017-05-29 17:21:00,
2017-05-29 13:26:00,87.1,73.4,30.08,North,360,0.0,0.0,64,0.00,,---,0.01,VWS V15.00,2017-05-29 17:26:00,
2017-05-29 13:31:00,86.8,73.2,30.08,North,360,0.0,0.0,64,0.00,,---,0.01,VWS V15.00,2017-05-29 17:31:00,
2017-05-29 13:36:00,86.8,73.6,30.08,North,360,0.0,0.0,65,0.00,,---,0.01,VWS V15.00,2017-05-29 17:36:00,
2017-05-29 13:41:00,87.3,73.2,30.07,North,360,0.0,0.0,63,0.00,,---,0.01,VWS V15.00,2017-05-29 17:41:00,
2017-05-29 13:46:00,87.4,73.3,30.07,North,360,0.0,0.0,63,0.00,,---,0.01,VWS V15.00,2017-05-29 17:46:00,
2017-05-29 13:51:00,88.1,73.4,30.07,North,360,0.0,0.0,62,0.00,,---,0.01,VWS V15.00,2017-05-29 17:51:00,
2017-05-29 13:56:00,88.6,72.9,30.07,North,360,0.0,0.0,60,0.00,,---,0.01,VWS V15.00,2017-05-29 17:56:00,
2017-05-29 14:01:00,88.2,72.1,30.06,North,360,0.0,0.0,59,0.00,,---,0.01,VWS V15.00,2017-05-29 18:01:00,
2017-05-29 14:06:00,88.2,73.1,30.07,North,360,0.0,0.0,61,0.00,,---,0.01,VWS V15.00,2017-05-29 18:06:00,
2017-05-29 14:11:00,88.5,72.3,30.06,North,360,0.0,0.0,59,0.00,,---,0.01,VWS V15.00,2017-05-29 18:11:00,
2017-05-29 14:16:00,89.0,73.8,30.06,North,360,0.0,0.0,61,0.00,,---,0.01,VWS V15.00,2017-05-29 18:16:00,
2017-05-29 14:21:00,88.3,72.7,30.06,North,360,0.0,0.0,60,0.00,,---,0.01,VWS V15.00,2017-05-29 18:21:00,
2017-05-29 14:26:00,88.0,72.9,30.06,North,360,0.0,0.0,61,0.00,,---,0.01,VWS V15.00,2017-05-29 18:26:00,
2017-05-29 14:31:00,87.7,72.1,30.05,North,360,0.0,0.0,60,0.00,,---,0.01,VWS V15.00,2017-05-29 18:31:00,
2017-05-29 14:36:00,87.9,72.3,30.05,North,360,0.0,0.0,60,0.00,,---,0.01,VWS V15.00,2017-05-29 18:36:00,
2017-05-29 14:41:00,88.4,73.7,30.05,North,360,0.0,0.0,62,0.00,,---,0.01,VWS V15.00,2017-05-29 18:41:00,
2017-05-29 14:46:00,88.8,74.1,30.05,North,360,0.0,0.0,62,0.00,,---,0.01,VWS V15.00,2017-05-29 18:46:00,
2017-05-29 14:51:00,89.0,73.3,30.05,North,360,0.0,0.0,60,0.00,,---,0.01,VWS V15.00,2017-05-29 18:51:00,
2017-05-29 14:56:00,88.8,72.6,30.05,North,360,0.0,0.0,59,0.00,,---,0.01,VWS V15.00,2017-05-29 18:56:00,
2017-05-29 15:01:00,88.9,72.7,30.05,North,360,0.0,0.0,59,0.00,,---,0.01,VWS V15.00,2017-05-29 19:01:00,
2017-05-29 15:06:00,89.2,73.5,30.04,North,360,0.0,0.0,60,0.00,,---,0.01,VWS V15.00,2017-05-29 19:06:00,
2017-05-29 15:11:00,89.7,72.4,30.04,North,360,0.0,0.0,57,0.00,,---,0.01,VWS V15.00,2017-05-29 19:11:00,
2017-05-29 15:16:00,89.5,72.3,30.04,North,360,0.0,0.0,57,0.00,,---,0.01,VWS V15.00,2017-05-29 19:16:00,
2017-05-29 15:21:00,89.0,72.8,30.04,North,360,0.0,0.0,59,0.00,,---,0.01,VWS V15.00,2017-05-29 19:21:00,
2017-05-29 15:26:00,88.6,72.4,30.04,North,360,0.0,0.0,59,0.00,,---,0.01,VWS V15.00,2017-05-29 19:26:00,
2017-05-29 15:31:00,88.8,73.6,30.04,North,360,0.0,0.0,61,0.00,,---,0.01,VWS V15.00,2017-05-29 19:31:00,
2017-05-29 15:36:00,89.2,74.0,30.04,North,360,0.0,0.0,61,0.00,,---,0.01,VWS V15.00,2017-05-29 19:36:00,
2017-05-29 15:41:00,89.4,73.2,30.04,North,360,0.0,0.0,59,0.00,,---,0.01,VWS V15.00,2017-05-29 19:41:00,
2017-05-29 15:46:00,89.1,73.9,30.04,North,360,0.0,0.0,61,0.00,,---,0.01,VWS V15.00,2017-05-29 19:46:00,
2017-05-29 15:51:00,88.4,74.2,30.04,North,360,0.0,0.0,63,0.00,,---,0.01,VWS V15.00,2017-05-29 19:51:00,
2017-05-29 15:56:00,88.5,74.8,30.04,North,360,0.0,0.0,64,0.00,,---,0.01,VWS V15.00,2017-05-29 19:56:00,
2017-05-29 16:01:00,89.0,75.2,30.03,North,360,0.0,0.0,64,0.00,,---,0.01,VWS V15.00,2017-05-29 20:01:00,
2017-05-29 16:06:00,88.7,74.0,30.03,North,360,0.0,0.0,62,0.00,,---,0.01,VWS V15.00,2017-05-29 20:06:00,
2017-05-29 16:11:00,88.4,74.7,30.03,North,360,0.0,0.0,64,0.00,,---,0.01,VWS V15.00,2017-05-29 20:11:00,
2017-05-29 16:16:00,88.4,74.2,30.03,North,360,0.0,0.0,63,0.00,,---,0.01,VWS V15.00,2017-05-29 20:16:00,
2017-05-29 16:21:00,88.4,74.2,30.03,North,360,0.0,0.0,63,0.00,,---,0.01,VWS V15.00,2017-05-29 20:21:00,
2017-05-29 16:26:00,88.4,74.2,30.03,North,360,0.0,0.0,63,0.00,,---,0.01,VWS V15.00,2017-05-29 20:26:00,
2017-05-29 16:31:00,88.0,73.8,30.03,North,360,0.0,0.0,63,0.00,,---,0.01,VWS V15.00,2017-05-29 20:31:00,
2017-05-29 16:36:00,87.8,74.6,30.03,North,360,0.0,0.0,65,0.00,,---,0.01,VWS V15.00,2017-05-29 20:36:00,
2017-05-29 16:41:00,88.2,74.5,30.03,North,360,0.0,0.0,64,0.00,,---,0.01,VWS V15.00,2017-05-29 20:41:00,
2017-05-29 16:46:00,88.3,74.6,30.03,North,360,0.0,0.0,64,0.00,,---,0.01,VWS V15.00,2017-05-29 20:46:00,
2017-05-29 16:51:00,88.0,74.3,30.03,North,360,0.0,0.0,64,0.00,,---,0.01,VWS V15.00,2017-05-29 20:51:00,
2017-05-29 16:56:00,88.0,74.3,30.02,North,360,0.0,0.0,64,0.00,,---,0.01,VWS V15.00,2017-05-29 20:56:00,
2017-05-29 17:01:00,87.8,74.6,30.02,North,360,0.0,0.0,65,0.00,,---,0.01,VWS V15.00,2017-05-29 21:01:00,
2017-05-29 17:06:00,87.6,74.4,30.02,North,360,0.0,0.0,65,0.00,,---,0.01,VWS V15.00,2017-05-29 21:06:00,
2017-05-29 17:11:00,87.4,74.2,30.02,North,360,0.0,0.0,65,0.00,,---,0.01,VWS V15.00,2017-05-29 21:11:00,
2017-05-29 17:16:00,87.1,73.9,30.02,North,5,0.0,0.0,65,0.00,,---,0.01,VWS V15.00,2017-05-29 21:16:00,
2017-05-29 17:21:00,87.3,74.6,30.02,North,360,0.0,0.0,66,0.00,,---,0.01,VWS V15.00,2017-05-29 21:21:00,
2017-05-29 17:26:00,87.1,74.4,30.01,North,360,0.0,0.0,66,0.00,,---,0.01,VWS V15.00,2017-05-29 21:26:00,
2017-05-29 17:31:00,86.7,74.4,30.01,North,360,0.0,0.0,67,0.00,,---,0.01,VWS V15.00,2017-05-29 21:31:00,
2017-05-29 17:36:00,86.9,74.6,30.01,North,360,0.0,0.0,67,0.00,,---,0.01,VWS V15.00,2017-05-29 21:36:00,
2017-05-29 17:41:00,86.8,74.1,30.01,North,360,0.0,0.0,66,0.00,,---,0.01,VWS V15.00,2017-05-29 21:41:00,
2017-05-29 17:46:00,86.2,74.0,30.02,North,360,0.0,0.0,67,0.00,,---,0.01,VWS V15.00,2017-05-29 21:46:00,
2017-05-29 17:51:00,85.7,73.9,30.02,North,360,0.0,0.0,68,0.00,,---,0.01,VWS V15.00,2017-05-29 21:51:00,
2017-05-29 17:56:00,85.4,74.1,30.02,North,360,0.0,0.0,69,0.00,,---,0.01,VWS V15.00,2017-05-29 21:56:00,
2017-05-29 18:01:00,85.0,73.7,30.01,North,360,0.0,0.0,69,0.00,,---,0.01,VWS V15.00,2017-05-29 22:01:00,
2017-05-29 18:06:00,84.7,73.4,30.01,North,360,0.0,0.0,69,0.00,,---,0.01,VWS V15.00,2017-05-29 22:06:00,
2017-05-29 18:11:00,84.6,73.3,30.02,North,360,0.0,0.0,69,0.00,,---,0.01,VWS V15.00,2017-05-29 22:11:00,
2017-05-29 18:16:00,84.4,73.1,30.02,North,360,0.0,0.0,69,0.00,,---,0.01,VWS V15.00,2017-05-29 22:16:00,
2017-05-29 18:21:00,84.3,73.0,30.03,North,5,0.0,0.0,69,0.00,,---,0.01,VWS V15.00,2017-05-29 22:21:00,
2017-05-29 18:26:00,84.2,72.9,30.03,North,360,0.0,0.0,69,0.00,,---,0.01,VWS V15.00,2017-05-29 22:26:00,
2017-05-29 18:31:00,84.2,72.9,30.03,North,360,0.0,0.0,69,0.00,,---,0.01,VWS V15.00,2017-05-29 22:31:00,
2017-05-29 18:36:00,84.1,73.3,30.04,North,360,0.0,0.0,70,0.00,,---,0.01,VWS V15.00,2017-05-29 22:36:00,
2017-05-29 18:41:00,84.0,73.2,30.04,North,360,0.0,0.0,70,0.00,,---,0.01,VWS V15.00,2017-05-29 22:41:00,
2017-05-29 18:46:00,84.0,73.2,30.04,North,360,0.0,0.0,70,0.00,,---,0.01,VWS V15.00,2017-05-29 22:46:00,
2017-05-29 18:51:00,83.9,73.1,30.04,North,360,0.0,0.0,70,0.00,,---,0.01,VWS V15.00,2017-05-29 22:51:00,
2017-05-29 18:56:00,83.9,73.1,30.05,North,360,0.0,0.0,70,0.00,,---,0.01,VWS V15.00,2017-05-29 22:56:00,
2017-05-29 19:01:00,83.9,73.1,30.05,North,360,0.0,0.0,70,0.00,,---,0.01,VWS V15.00,2017-05-29 23:01:00,
2017-05-29 19:06:00,83.8,73.0,30.05,North,360,0.0,0.0,70,0.00,,---,0.01,VWS V15.00,2017-05-29 23:06:00,
2017-05-29 19:11:00,83.8,73.0,30.05,North,360,0.0,0.0,70,0.00,,---,0.01,VWS V15.00,2017-05-29 23:11:00,
2017-05-29 19:16:00,83.8,73.0,30.05,North,360,0.0,0.0,70,0.00,,---,0.01,VWS V15.00,2017-05-29 23:16:00,
2017-05-29 19:21:00,83.7,72.9,30.05,North,360,0.0,0.0,70,0.00,,---,0.01,VWS V15.00,2017-05-29 23:21:00,
2017-05-29 19:26:00,83.7,72.9,30.05,North,360,0.0,0.0,70,0.00,,---,0.01,VWS V15.00,2017-05-29 23:26:00,
2017-05-29 19:31:00,83.7,72.9,30.05,North,360,0.0,0.0,70,0.00,,---,0.01,VWS V15.00,2017-05-29 23:31:00,
2017-05-29 19:36:00,83.7,72.5,30.05,North,360,0.0,0.0,69,0.00,,---,0.01,VWS V15.00,2017-05-29 23:36:00,
2017-05-29 19:41:00,83.7,72.5,30.05,North,360,0.0,0.0,69,0.00,,---,0.01,VWS V15.00,2017-05-29 23:41:00,
2017-05-29 19:46:00,83.7,72.0,30.06,North,360,0.0,0.0,68,0.00,,---,0.01,VWS V15.00,2017-05-29 23:46:00,
2017-05-29 19:51:00,83.7,72.5,30.06,North,360,0.0,0.0,69,0.00,,---,0.01,VWS V15.00,2017-05-29 23:51:00,
2017-05-29 19:56:00,83.7,72.5,30.06,North,360,0.0,0.0,69,0.00,,---,0.01,VWS V15.00,2017-05-29 23:56:00,